Simultaneous Nadir Overpasses (SNOs) Predictions

Prediction of SNOs between AQUA and METOP-C Satellite Orbit:

Table of predicted SNOs for the next 14.0 days since TLE Epoch: 5/7/2022
Index Date (AQUA) Time (AQUA) Lat,Lon (AQUA) SZA (AQUA ) Date (METOP-C) Time (METOP-C) Lat,Lon (METOP-C) SZA (METOP-C ) Distance(km) Time Diff (sec)
1 05/07/2022 21:11:07 -73.85, 36.85 123.19 05/07/2022 21:10:08 -73.84, 36.92 123.18 2.28 59
2 05/07/2022 22:00:35 73.90,-155.62 56.86 05/07/2022 22:00:48 73.88,-155.67 56.84 2.78 13
3 05/07/2022 22:50:10 -74.39, 10.89 122.63 05/07/2022 22:51:18 -74.41, 12.99 122.67 63.07 68
4 05/10/2022 16:44:58 -73.85, 103.39 123.93 05/10/2022 16:44:27 -73.87, 103.39 123.91 1.82 31
5 05/10/2022 17:34:27 73.96, -89.21 56.17 05/10/2022 17:35:06 73.94, -89.10 56.15 3.76 39
6 05/13/2022 11:29:22 73.77, 2.48 55.28 05/13/2022 11:28:09 73.72, 2.13 55.25 12.25 73
7 05/13/2022 12:18:50 -73.89, 169.85 124.60 05/13/2022 12:18:47 -73.88, 169.84 124.61 1.14 3
8 05/13/2022 13:08:18 73.95, -22.64 55.46 05/13/2022 13:09:26 73.95, -22.68 55.45 1.14 68
9 05/16/2022 07:03:14 73.85, 68.86 54.70 05/16/2022 07:02:26 73.87, 68.89 54.72 2.46 48
10 05/16/2022 07:52:41 -73.91,-123.65 125.24 05/16/2022 07:53:06 -73.94,-123.61 125.22 2.73 25
11 05/19/2022 01:47:25 -73.27, -31.00 126.53 05/19/2022 01:46:18 -73.22, -33.53 126.51 81.33 67
12 05/19/2022 02:37:03 73.86, 135.38 54.09 05/19/2022 02:36:45 73.86, 135.28 54.09 3.02 18
13 05/19/2022 03:26:30 -73.93, -57.12 125.86 05/19/2022 03:27:25 -73.94, -57.20 125.85 2.72 55



Historial Predications of SNOs between AQUA and METOP-C
